Weather in Galich

Ukraine / Ivano-Frankovsk District     49°06′49″N   24°43′52″E
В апреле 2022 года жителям России запретили посещать сайт meteo.paraplan.net по решению Генеральной прокуратуры. Аудитория сайта уменьшилась в 10 раз. Владельцы сайта не видят смысла в поддержке погодного сервера в таких условиях. Сайт будет закрыт в октябре.
temp.,
°C
wind,
m/s
gust,
m/s
humid.,
%
clouds,
%
prec.,
mm/h
press.,
hPa
HPBL,
m
3 october, mon
mon300:00+10w7157712 0.1 1011598
03:00+9wnw6138070 0.1 1010514
06:00+9wnw8158362 0.1 1010795
09:00+9wnw81480100 0.3 10101346
12:00+9w81586100 0.8 10111460
15:00+9w91689100 3.1 10101490
18:00+9w91787100 3.2 10101377
21:00+9wnw81486100 3.7 1012975
4 october, tue
tue400:00+8wnw81586100 0.4 1013762
03:00+8wnw71488100 0.4 1013726
06:00+8wnw61389100 0.1 1014644
09:00+9wnw6118899 0.4 10161080
12:00+9wnw71183100 0.3 1018913
15:00+12wnw71069100 0.3 10181425
18:00+11wnw5117697 0.1 1020829
21:00+10w5117769 0.2 1022479
5 october, wed
wed500:00+9wnw6127998 0.0 1023520
03:00+8w5127831 0.0 1025355
06:00+6wnw36815 0.0 102595
09:00+8wsw137782 0.0 1026115
12:00+13ssw2362100 0.0 1025556
15:00+16nw1453100 0.0 10251070
18:00+14ese2268100 0.0 102431
21:00+11ssw2274100 0.0 102512
6 october, thu
thu600:00+9sw227599 0.0 102612
03:00+9ssw117179 0.0 102611
06:00+8s2274100 0.0 102511
09:00+10ssw2272100 0.0 102651
12:00+16sw125457 0.0 1026363
15:00+19nw4655100 0.0 1026768
18:00+16nw367238 0.0 1027111
21:00+12wnw33885 0.0 102949
7 october, fri
fri700:00+11wnw238785 0.0 103042
03:00+12wnw3689100 0.0 1031178
06:00+10nw22955 0.0 103150
09:00+11nnw11915 0.0 103187
12:00+15ese11725 0.0 1030659
15:00+17se236244 0.0 10281058
18:00+15se22745 0.0 102737
21:00+11se228612 0.0 102614